Location: Michelbach Markt
(48.1000°N, 15.7500°E)
Time: 18:48:39
(UTC+01:00)

X-37B - Pass Details

Date: 10 December 2023
Orbit: 277 x 277 km, 45.0° (Epoch: 01 November)

Event Time Altitude Azimuth Distance (km) Brightness Sun altitude
Rises 16:33:35 0° 268° (W) 1,917 5.4 -5.1°
Reaches altitude 10° 16:35:37 10° 256° (WSW) 1,102 4.5 -5.4°
Maximum altitude 16:37:48 28° 193° (SSW) 559 1.9 -5.7°
Drops below altitude 10° 16:39:59 10° 130° (SE) 1,100 2.7 -6.1°
Sets 16:42:01 0° 118° (ESE) 1,911 3.8 -6.4°
